Location: Stuttgart
(48.8069°N, 9.1544°E)
Time: 03:48:03
(UTC+02:00)

ISS - Pass Details

Date: 10 May 2021
Orbit: 417 x 422 km, 51.6° (Epoch: 15 June)

Event Time Altitude Azimuth Distance (km) Brightness Sun altitude
Exits shadow 01:16:09 10° 75° (ENE) 1,486 -0.8 -23.6°
Drops below altitude 10° 01:16:12 10° 74° (ENE) 1,509 -0.8 -23.6°
Sets 01:18:20 0° 70° (ENE) 2,377 0.3 -23.6°
